Meeker, CO

3:05 PM MDT on April 22, 2018 (GMT -0600)
Meeker

Weather History for KEEO - February, 2013

Change the Weather History Date:

Wednesday, February 13, 2013

  Actual Average Record
Temperature  
Mean Temperature 22 °F 24 °F  
Max Temperature 33 °F 37 °F 57 °F (2015)
Min Temperature 10 °F 11 °F -4 °F (2002)
Degree Days  
Heating Degree Days 43 41  
Month to date heating degree days 578 550  
Since 1 July heating degree days 5316 5231  
Cooling Degree Days 0 0  
Month to date cooling degree days 0 0  
Year to date cooling degree days 0 0  
Moisture  
Dew Point 13 °F    
Average Humidity 67    
Maximum Humidity 84    
Minimum Humidity 49    
Precipitation  
Precipitation 0.00 in 0.04 in 0.18 in (2012)
Month to date precipitation 0.17 0.43  
Year to date precipitation 0.86 1.30  
Sea Level Pressure  
Sea Level Pressure 30.30 in    
Wind  
Wind Speed 1 mph (ENE)    
Max Wind Speed 8 mph    
Max Gust Speed 9 mph    
Visibility 10 miles    
Events      
T = Trace of Precipitation, MM = Missing Value Source: NWS Daily Summary

Daily Weather History Graph

Daily Weather History Graph

Search for Another Location

Airport or City:

Astronomy

Feb. 13, 2013 Rise Set
Actual Time 7:06 AM MST 5:45 PM MST
Civil Twilight 6:38 AM MST 6:13 PM MST
Nautical Twilight 6:06 AM MST 6:45 PM MST
Astronomical Twilight 5:35 AM MST 7:16 PM MST
Moon 8:37 AM MST (2/13) 9:51 PM MST (2/13)
Length of Visible Light 11h 34m
Length of Day
10h 38m
Waxing Crescent, 14% of the Moon is Illuminated
Feb 13
Waxing Crescent
Feb 17
First Quarter
Feb 25
Full
Mar 4
Last Quarter
Mar 11
New

Hourly Weather History & Observations

Time (MST) Temp. Windchill Dew Point Humidity Pressure Visibility Wind Dir Wind Speed Gust Speed Precip Events Conditions
12:53 AM 17.1 °F - 10.0 °F 74% 30.36 in 10.0 mi Calm Calm - N/A   Overcast
1:53 AM 19.0 °F 12.3 °F 10.9 °F 71% 30.34 in 10.0 mi NE 4.6 mph - N/A   Overcast
2:53 AM 19.0 °F - 12.0 °F 74% 30.32 in 10.0 mi Calm Calm - N/A   Overcast
3:53 AM 19.0 °F - 12.9 °F 77% 30.31 in 10.0 mi Calm Calm - N/A   Overcast
4:53 AM 19.0 °F - 12.9 °F 77% 30.31 in 10.0 mi Calm Calm - N/A   Overcast
5:53 AM 19.0 °F 13.9 °F 14.0 °F 81% 30.35 in 10.0 mi ENE 3.5 mph - N/A   Overcast
6:53 AM 19.9 °F - 14.0 °F 78% 30.35 in 10.0 mi Calm Calm - N/A   Overcast
7:53 AM 19.9 °F - 15.1 °F 81% 30.39 in 10.0 mi Calm Calm - N/A   Overcast
8:53 AM 21.0 °F - 15.1 °F 78% 30.38 in 10.0 mi Calm Calm - N/A   Overcast
9:53 AM 24.1 °F 19.7 °F 16.0 °F 71% 30.35 in 10.0 mi NNE 3.5 mph - N/A   Overcast
10:53 AM 27.0 °F 21.6 °F 16.0 °F 63% 30.32 in 10.0 mi ENE 4.6 mph - N/A   Clear
11:53 AM 28.0 °F 22.8 °F 17.1 °F 63% 30.30 in 10.0 mi SSE 4.6 mph - N/A   Partly Cloudy
12:53 PM 30.0 °F - 16.0 °F 56% 30.25 in 10.0 mi Calm Calm - N/A   Mostly Cloudy
1:53 PM 30.0 °F - 16.0 °F 56% 30.22 in 10.0 mi Calm Calm - N/A   Partly Cloudy
2:53 PM 30.0 °F - 17.1 °F 59% 30.21 in 10.0 mi Calm Calm - N/A   Clear
3:53 PM 32.0 °F - 16.0 °F 52% 30.21 in 10.0 mi Calm Calm - N/A   Clear
4:53 PM 28.9 °F - 16.0 °F 58% 30.22 in 10.0 mi Calm Calm - N/A   Clear
5:53 PM 19.9 °F - 12.0 °F 71% 30.26 in 10.0 mi Calm Calm - N/A   Clear
6:53 PM 17.1 °F - 10.9 °F 77% 30.28 in 10.0 mi Calm Calm - N/A   Clear
7:53 PM 14.0 °F 8.2 °F 9.0 °F 80% 30.30 in 10.0 mi East 3.5 mph - N/A   Clear
8:53 PM 12.9 °F - 8.1 °F 81% 30.30 in 10.0 mi Calm Calm - N/A   Clear
9:53 PM 12.0 °F - 8.1 °F 84% 30.30 in 10.0 mi Calm Calm - N/A   Partly Cloudy
10:53 PM 15.1 °F - 10.0 °F 80% 30.28 in 10.0 mi Calm Calm - N/A   Clear
11:53 PM 15.1 °F - 10.0 °F 80% 30.27 in 10.0 mi Calm Calm - N/A   Clear